Duluth, MN

10:42 PM CDT on May 20, 2018 (GMT -0500)
Duluth International

Weather History for KDLH - November, 2011

Change the Weather History Date:

Friday, November 11, 2011

  Actual Average Record
Temperature  
Mean Temperature 34 °F 31 °F  
Max Temperature 45 °F 38 °F 62 °F (1930)
Min Temperature 22 °F 25 °F -3 °F (1986)
Degree Days  
Heating Degree Days 31 34  
Month to date heating degree days 292 344  
Since 1 July heating degree days 1144 1469  
Cooling Degree Days 0 0  
Month to date cooling degree days 0 0  
Year to date cooling degree days 314 204  
Moisture  
Dew Point 20 °F    
Average Humidity 59    
Maximum Humidity 81    
Minimum Humidity 37    
Precipitation  
Precipitation 0.00 in 0.07 in 1.67 in (1940)
Month to date precipitation 0.04 0.82  
Year to date precipitation 24.95 28.48  
Snow  
Snow 0.00 in 0.40 in 3.70 in (1975)
Month to date snowfall T 3.5  
Since 1 July snowfall T 5.9  
Since 1 September snowfall T 5.9  
Snow Depth 0.00 in    
Sea Level Pressure  
Sea Level Pressure 29.67 in    
Wind  
Wind Speed 10 mph (SW)    
Max Wind Speed 22 mph    
Max Gust Speed 29 mph    
Visibility 10 miles    
Events      
T = Trace of Precipitation, MM = Missing Value Source: NWS Daily Summary

Daily Weather History Graph

Daily Weather History Graph

Search for Another Location

Airport or City:

Astronomy

Nov. 11, 2011 Rise Set
Actual Time 7:05 AM CST 4:39 PM CST
Civil Twilight 6:32 AM CST 5:12 PM CST
Nautical Twilight 5:56 AM CST 5:48 PM CST
Astronomical Twilight 5:20 AM CST 6:24 PM CST
Moon 5:02 PM CST (11/11) 8:00 AM CST (11/11)
Length of Visible Light 10h 39m
Length of Day
9h 34m
Full, 99% of the Moon is Illuminated
Nov 11
Full
Nov 18
Last Quarter
Nov 25
New
Dec 2
First Quarter
Dec 10
Full

Hourly Weather History & Observations

Time (CST) Temp. Windchill Dew Point Humidity Pressure Visibility Wind Dir Wind Speed Gust Speed Precip Events Conditions
12:55 AM 24.1 °F - 17.1 °F 75% 29.92 in 10.0 mi Calm Calm - N/A   Clear
1:55 AM 21.9 °F 15.7 °F 16.0 °F 78% 29.91 in 10.0 mi SSW 4.6 mph - N/A   Clear
2:55 AM 23.0 °F 14.7 °F 17.1 °F 78% 29.88 in 10.0 mi South 6.9 mph - N/A   Clear
3:55 AM 25.0 °F 18.1 °F 19.0 °F 78% 29.86 in 10.0 mi SSW 5.8 mph - N/A   Mostly Cloudy
4:55 AM 26.6 °F 17.5 °F 19.4 °F 74% 29.77 in 10.0 mi SSW 9.2 mph - N/A   Mostly Cloudy
5:55 AM 28.0 °F 18.1 °F 19.9 °F 72% 29.80 in 10.0 mi SSW 11.5 mph - N/A   Mostly Cloudy
6:55 AM 28.9 °F 21.9 °F 19.9 °F 69% 29.77 in 10.0 mi SSE 6.9 mph - N/A   Overcast
7:55 AM 28.0 °F 19.3 °F 19.9 °F 72% 29.73 in 10.0 mi South 9.2 mph - N/A   Mostly Cloudy
8:55 AM 30.9 °F 22.2 °F 21.0 °F 67% 29.70 in 10.0 mi South 10.4 mph - N/A   Scattered Clouds
9:55 AM 33.1 °F 23.0 °F 19.9 °F 59% 29.68 in 10.0 mi South 15.0 mph - N/A   Mostly Cloudy
10:55 AM 37.9 °F 30.5 °F 19.9 °F 48% 29.64 in 10.0 mi South 11.5 mph - N/A   Mostly Cloudy
11:55 AM 39.9 °F 31.4 °F 19.9 °F 45% 29.61 in 10.0 mi SW 16.1 mph 25.3 mph N/A   Scattered Clouds
12:55 PM 43.0 °F 35.1 °F 19.9 °F 40% 29.57 in 10.0 mi SW 17.3 mph - N/A   Scattered Clouds
1:55 PM 44.1 °F 36.2 °F 19.9 °F 38% 29.56 in 10.0 mi SW 18.4 mph 23.0 mph N/A   Partly Cloudy
2:55 PM 44.6 °F 37.4 °F 21.2 °F 39% 29.50 in 10.0 mi SW 16.1 mph - N/A   Partly Cloudy
3:55 PM 43.0 °F 35.7 °F 21.0 °F 42% 29.56 in 10.0 mi SW 15.0 mph - N/A   Clear
4:55 PM 41.0 °F 35.8 °F 21.0 °F 45% 29.56 in 10.0 mi WSW 8.1 mph - N/A   Clear
5:55 PM 39.0 °F 32.3 °F 21.0 °F 49% 29.56 in 10.0 mi WSW 10.4 mph - N/A   Clear
6:55 PM 37.9 °F 30.9 °F 21.9 °F 53% 29.56 in 10.0 mi WSW 10.4 mph - N/A   Clear
7:55 PM 37.9 °F 30.5 °F 21.9 °F 53% 29.55 in 10.0 mi SW 11.5 mph - N/A   Clear
8:55 PM 36.0 °F 29.6 °F 21.9 °F 57% 29.57 in 10.0 mi WSW 8.1 mph - N/A   Clear
9:55 PM 34.0 °F 27.2 °F 21.9 °F 61% 29.57 in 10.0 mi WSW 8.1 mph - N/A   Clear
10:55 PM 30.0 °F 21.7 °F 21.0 °F 69% 29.57 in 10.0 mi West 9.2 mph - N/A   Clear
11:55 PM 30.9 °F 22.8 °F 21.9 °F 69% 29.57 in 10.0 mi West 9.2 mph - N/A   Clear